Flag for U.S.A. Weather past 2 weeks in Irving, Texas, U.S.A.

Now
60 °F

Fog.


Feels Like: 60 °F
Forecast: 50 / 65 °F
Wind: 8 mph from Southeast

Location: Dallas / Fort Worth International Airport

Current Time: Dec 26, 2014 at 2:54:55 PM

Latest Report: Dec 26, 2014 at 1:53 PM


Visibility: 3 mi

Pressure: 29.86 "Hg

Humidity: 93%

Dew point: 58 °F

Location of IrvingLocation

Historic Weather in Irving — Graph

°F

Irving temperature yesterday

Maximum temperature yesterday: 61 °F (at 3:53 PM)
Minimum temperature yesterday: 34 °F (at 1:53 AM)
Average temperature yesterday: 49 °F

Past Weeks' High & Low Weather Summary

 TemperatureHumidityPressure
High70 °F (Dec 12, 2:53 PM)100% (Dec 18, 5:53 AM)30.37 "Hg (Dec 18, 5:53 AM)
Low34 °F (Dec 25, 1:53 AM)26% (Dec 25, 3:53 PM)29.54 "Hg (Dec 22, 1:53 PM)
Average52 °F74%30.03 "Hg
* Reported Dec 11 1:53 PM — Dec 26 1:53 PM, Irving, Weather by CustomWeather, © 2014

Note: Actual official high and low records may vary slightly from our data, if they occured in-between our weather recording intervals... More about our weather records

Advertising

Irving weather history for previous 24 hours

 ConditionsComfort  
Time TempWeatherWind HumidityBarometerVisibility
1:53 PM
Dec 26
60 °FFog.8 mph93%29.86 "Hg3 mi
12:53 PM58 °FFog.7 mph93%29.89 "Hg2 mi
11:53 AM57 °FLight rain. Fog.9 mph93%29.92 "Hg3 mi
10:53 AM59 °FMostly cloudy.15 mph81%29.95 "Hg10 mi
9:53 AM57 °FOvercast.9 mph78%29.95 "Hg10 mi
8:53 AM55 °FOvercast.9 mph80%29.93 "Hg10 mi
7:53 AM54 °FOvercast.9 mph80%29.92 "Hg10 mi
6:53 AM54 °FMostly cloudy.10 mph80%29.90 "Hg10 mi
5:53 AM54 °FMostly cloudy.9 mph77%29.90 "Hg10 mi
4:53 AM53 °FOvercast.10 mph77%29.90 "Hg10 mi
3:53 AM54 °FOvercast.10 mph77%29.92 "Hg10 mi
2:53 AM53 °FOvercast.12 mph74%29.93 "Hg10 mi
1:53 AM51 °FPassing clouds.12 mph77%29.93 "Hg10 mi
12:53 AM51 °FPassing clouds.10 mph74%29.93 "Hg10 mi
11:53 PM
Dec 25
52 °FPassing clouds.14 mph72%29.94 "Hg10 mi
10:53 PM53 °FPassing clouds.22 mph66%29.92 "Hg10 mi
9:53 PM54 °FPassing clouds.17 mph57%29.92 "Hg10 mi
8:53 PM55 °FPassing clouds.18 mph49%29.91 "Hg10 mi
7:53 PM55 °FPassing clouds.20 mph45%29.90 "Hg10 mi
6:53 PM55 °FPassing clouds.15 mph42%29.91 "Hg10 mi
5:53 PM56 °FPassing clouds.17 mph36%29.91 "Hg10 mi
4:53 PM59 °FScattered clouds.22 mph32%29.89 "Hg10 mi
3:53 PM61 °FPartly sunny.32 mph26%29.89 "Hg10 mi
2:53 PM60 °FPartly sunny.26 mph27%29.88 "Hg10 mi
Weather by CustomWeather, © 2014

See weather overviewHow to use our weather pages